Weather History for Fort Worth NAS, TX

Change the Weather History Date:

Wednesday, August 21, 2013

  Actual Average Record
Temperature  
Mean Temperature 88 °F -  
Max Temperature 98 °F 92 °F 106 °F (2010)
Min Temperature 77 °F 74 °F 68 °F (2012)
Cooling Degree Days 22    
Growing Degree Days 38 (Base 50)    
Moisture  
Dew Point 62 °F    
Average Humidity 43    
Maximum Humidity 64    
Minimum Humidity 27    
Precipitation  
Precipitation 0.00 in - - ()
Sea Level Pressure  
Sea Level Pressure 30.03 in    
Wind  
Wind Speed 6 mph (SSE)    
Max Wind Speed 12 mph    
Max Gust Speed 20 mph    
Visibility 10 miles    
Events      
Averages and records for this station are not official NWS values.
T = Trace of Precipitation, MM = Missing Value Source: NWS Daily Summary

Daily Weather History Graph

Daily Weather History Graph

Search for Another Location

Airport:

Trip Planner

Search our weather history database for the weather conditions in past years. The results will help you decide how hot, cold, wet, or windy it might be!

Date:

Astronomy

Aug. 21, 2013 Rise Set
Actual Time 6:57 AM CDT 8:07 PM CDT
Civil Twilight 6:31 AM CDT 8:33 PM CDT
Nautical Twilight 6:01 AM CDT 9:03 PM CDT
Astronomical Twilight 5:29 AM CDT 9:35 PM CDT
Moon 8:24 PM CDT (8/21) 7:33 AM CDT (8/21)
Length of Visible Light 14h 01m
Length of Day
13h 10m
Waxing Gibbous, 99% of the Moon is Illuminated
Aug 21
Waxing Gibbous
Aug 28
Last Quarter
Sep 5
New
Sep 12
First Quarter
Sep 19
Full

Hourly Weather History & Observations

Time (CDT) Temp. Heat Index Dew Point Humidity Pressure Visibility Wind Dir Wind Speed Gust Speed Precip Events Conditions
12:52 AM 82.9 °F 82.4 °F 57.0 °F 41% 30.00 in 10.0 mi SSE 3.5 mph - N/A   Partly Cloudy
1:52 AM 82.9 °F 83.3 °F 61.0 °F 47% 30.01 in 10.0 mi South 11.5 mph - N/A   Scattered Clouds
2:52 AM 81.0 °F 81.9 °F 62.1 °F 52% 30.01 in 10.0 mi South 8.1 mph - N/A   Partly Cloudy
3:52 AM 81.0 °F 82.2 °F 63.0 °F 54% 30.02 in 10.0 mi South 3.5 mph - N/A   Clear
4:52 AM 79.0 °F - 63.0 °F 58% 30.02 in 10.0 mi Calm Calm - N/A   Partly Cloudy
5:52 AM 79.0 °F - 63.0 °F 58% 30.04 in 10.0 mi SE 3.5 mph - N/A   Scattered Clouds
6:52 AM 77.0 °F - 64.0 °F 64% 30.05 in 10.0 mi SE 4.6 mph - N/A   Partly Cloudy
7:52 AM 77.0 °F - 64.0 °F 64% 30.06 in 10.0 mi ESE 4.6 mph - N/A   Clear
8:52 AM 82.0 °F 84.1 °F 66.0 °F 58% 30.07 in 10.0 mi South 5.8 mph - N/A   Partly Cloudy
9:52 AM 84.9 °F 86.6 °F 64.9 °F 51% 30.08 in 10.0 mi South 8.1 mph - N/A   Scattered Clouds
10:52 AM 89.1 °F 91.0 °F 64.9 °F 45% 30.09 in 10.0 mi South 8.1 mph - N/A   Partly Cloudy
11:52 AM 91.0 °F 91.9 °F 63.0 °F 39% 30.08 in 10.0 mi South 3.5 mph - N/A   Partly Cloudy
12:52 PM 91.9 °F 91.8 °F 61.0 °F 35% 30.06 in 10.0 mi South 8.1 mph 16.1 mph N/A   Scattered Clouds
1:52 PM 95.0 °F 94.8 °F 60.1 °F 31% 30.05 in 10.0 mi SE 11.5 mph 19.6 mph N/A   Scattered Clouds
2:52 PM 96.1 °F 96.4 °F 61.0 °F 31% 30.03 in 10.0 mi East 8.1 mph - N/A   Mostly Cloudy
3:52 PM 98.1 °F 97.7 °F 59.0 °F 27% 30.00 in 10.0 mi South 9.2 mph - N/A   Mostly Cloudy
4:52 PM 95.0 °F 94.8 °F 60.1 °F 31% 29.99 in 10.0 mi ESE 11.5 mph 17.3 mph N/A   Mostly Cloudy
5:52 PM 95.0 °F 95.2 °F 61.0 °F 32% 29.98 in 10.0 mi ESE 8.1 mph - N/A   Mostly Cloudy
6:52 PM 93.9 °F 93.6 °F 60.1 °F 32% 29.97 in 10.0 mi SSE 6.9 mph - N/A   Mostly Cloudy
7:52 PM 93.0 °F 92.7 °F 60.1 °F 33% 29.98 in 10.0 mi SE 6.9 mph - N/A   Mostly Cloudy
8:52 PM 91.0 °F 90.9 °F 61.0 °F 36% 29.99 in 10.0 mi SE 6.9 mph - N/A   Scattered Clouds
9:52 PM 89.1 °F 89.0 °F 61.0 °F 39% 30.01 in 10.0 mi SE 4.6 mph - N/A   Partly Cloudy
10:52 PM 89.1 °F 89.3 °F 62.1 °F 40% 30.03 in 10.0 mi SE 6.9 mph - N/A   Scattered Clouds
11:52 PM 86.0 °F 86.3 °F 62.1 °F 44% 30.04 in 10.0 mi Calm Calm - N/A   Clear